Location: Sternwarte auf dem Internationalen Platz Vogelsang IP
(50.5721°N, 6.4398°E)
Time: 18:44:40
(UTC+01:00)

A-11 Canister half - Pass Details

Date: 15 December 2025
Orbit: 1511 x 1688 km, 47.2° (Epoch: 19 January)

Event Time Altitude Azimuth Distance (km) Brightness Sun altitude
Rises 20:41:39 0° 286° (WNW) 4,743 12.5 -38.6°
Reaches altitude 10° 20:44:50 10° 280° (W) 3,781 11.7 -39.1°
Maximum altitude 20:53:47 46° 212° (SSW) 2,078 9.6 -40.4°
Enters shadow 20:54:03 46° 208° (SSW) 2,081 9.6 -40.5°
Drops below altitude 10° 21:03:03 10° 143° (SE) 3,899 - -41.9°
Sets 21:06:24 0° 138° (SE) 4,903 - -42.4°
